User: anonymous   Login
Location: Montr�al
(45.5000°N, 73.5830°W)
Time: 20:15:06
(UTC-04:00)
Language:

Cosmos 1470 Rocket - Orbit

View from above orbital plane
View from above orbital plane
View from above satellite
View from above satellite

Ground track
Ground track

The orbit data is extracted from the following two-line orbital elements,

1 14148U 83061B   17289.62232796 +.00000100 +00000-0 +93171-5 0  9997
2 14148 082.5187 155.8589 0020199 294.5675 095.1417 14.83247323831715
Epoch (UTC): 16 October 2017 14:56:09
Eccentricity: 0.0020199
inclination: 82.5187°
perigee height: 605 km
apogee height: 633 km
right ascension of ascending node: 155.8589°
argument of perigee: 294.5675°
revolutions per day: 14.83247323
mean anomaly at epoch: 95.1417°
orbit number at epoch: 83171

The dashed part of the orbit path shows where the satellite is in the earth's shadow,  

DLR